FALCON 9 DEB (50852 NORAD) Tracking and Keplerian Element Data
This shows tracking and keplerian element data for the satellite.
Feedback or suggestion? Click here.
Element | Value |
Catalog | 50852 |
Name | FALCON 9 DEB |
Epoch Orbit | 252 |
Epoch Day | 22.44430709 |
Epoch Year | 2022 |
RAAN | 119.3803 |
Inclination | 53.1796 |
Eccentricity | 0.0012875 |
Argument of Perigee | 236.8963 |
Mean Anonmoly | 123.0852 |
Mean Motion | 16.44586116 |
Decay Rate | 0.08772251 |
L1 | 1 50852U 22001BB 22022.44430709 .08772251 12360-4 23117-3 0 9999 |
L2 | 2 50852 53.1796 119.3803 0012875 236.8963 123.0852 16.44586116 2520 |
Live tracking and technical data element details for FALCON 9 DEB (NORAD 50852). FALCON 9 DEB can be tracked NOW for your location showing map with azimuth and elevation plus other details from your city location.
Track the satellite on the map from your city or location and see movement details for azimuth, elevation, latitude, longitude, range, height, and movement on the map or in text.
IsCatalogInMostPopularTable: catalog: 50852, numindb: 20
Update: records affected: 1
GetName: 50852 FALCON 9 DEB
Hit Count: updated at: Mon, 23 May 2022 19:59:54 GMT